FW3157 Weather Reports


time (UTC)temp
F
wind
direction
speed
knots
gust
knots
rain 1hr
in
rain 24hr
in
rain mn
in
humidity
%
barometer
mb
20260507065213 65 266 1.7 3.5 0.00 0.00 0.00 72 1017.5
20260507064226 65 254 1.7 3.5 0.00 0.00 0.00 72 1017.5
20260507063723 65 238 1.7 4.3 0.00 0.00 0.00 72 1017.5
20260507063223 65 287 1.7 4.3 0.00 0.00 0.00 71 1017.5
20260507062715 65 249 2.6 6.1 0.00 0.00 0.00 71 1017.5
20260507062208 65 252 2.6 6.1 0.00 0.00 0.00 71 1017.6
20260507061702 65 278 1.7 3.5 0.00 0.00 0.00 70 1017.5
20260507061157 65 269 1.7 4.3 0.00 0.00 0.00 71 1017.3
20260507060651 65 211 1.7 4.3 0.00 0.00 0.00 70 1017.3
20260507060406 66 262 1.7 3.5 0.00 0.00 0.00 70 1017.2
20260507055638 65 214 0.9 3.5 0.00 0.00 0.00 70 1017.2
20260507055355 66 304 0.9 2.6 0.00 0.00 0.00 70 1017.0
20260507054626 66 304 0.9 1.7 0.00 0.00 0.00 70 1017.0
20260507054121 65 304 0.9 2.6 0.00 0.00 0.00 71 1017.1
20260507053615 66 304 0.9 2.6 0.00 0.00 0.00 70 1017.0
20260507053107 66 304 0.9 1.7 0.00 0.00 0.00 67 1017.0
20260507052602 66 304 0.0 1.7 0.00 0.00 0.00 67 1017.0
20260507052100 67 304 0.0 1.7 0.00 0.00 0.00 65 1016.9
20260507051820 67 304 0.0 0.0 0.00 0.00 0.00 67 1016.7
20260507051059 66 304 0.0 0.0 0.00 0.00 0.00 68 1016.6
20260507050559 65 304 0.0 0.9 0.00 0.00 0.00 69 1016.7
20260507050322 64 304 0.0 0.9 0.00 0.00 0.00 70 1016.9
20260507045556 64 304 0.0 0.9 0.00 0.00 0.00 69 1016.7
20260507045055 64 304 0.0 0.9 0.00 0.00 0.00 70 1016.9
20260507044555 64 304 0.0 1.7 0.00 0.00 0.00 71 1016.6
20260507044314 63 304 0.0 1.7 0.00 0.00 0.00 72 1016.6
20260507043551 64 304 0.0 0.9 0.00 0.00 0.00 73 1016.6
20260507043052 63 304 0.0 0.9 0.00 0.00 0.00 74 1016.6
20260507042551 63 304 0.0 0.9 0.00 0.00 0.00 74 1016.7
20260507042050 63 304 0.0 0.0 0.00 0.00 0.00 76 1016.7
20260507041547 62 304 0.0 0.9 0.00 0.00 0.00 77 1016.6
20260507041048 61 304 0.0 0.9 0.00 0.00 0.00 77 1016.6
20260507040547 61 304 0.0 0.9 0.00 0.00 0.00 78 1016.5
20260507040046 61 304 0.0 0.0 0.00 0.00 0.00 78 1016.5
20260507035546 61 304 0.0 1.7 0.00 0.00 0.00 78 1016.5
20260507035045 61 304 0.0 1.7 0.00 0.00 0.00 79 1016.4
20260507034539 60 304 0.9 2.6 0.00 0.00 0.00 80 1016.3
20260507034033 60 304 1.7 2.6 0.00 0.00 0.00 80 1016.3
20260507033527 60 304 1.7 2.6 0.00 0.00 0.00 80 1016.2
20260507033020 60 304 0.9 2.6 0.00 0.00 0.00 80 1016.2
20260507032515 60 304 0.0 0.9 0.00 0.00 0.00 79 1016.1
20260507032231 60 304 0.0 0.9 0.00 0.00 0.00 78 1016.2
20260507031502 61 304 0.0 0.9 0.00 0.00 0.00 78 1016.2
20260507030957 61 304 0.0 0.0 0.00 0.00 0.00 78 1016.2
20260507030452 61 304 0.0 0.0 0.00 0.00 0.00 78 1016.2
20260507030203 61 304 0.0 0.0 0.00 0.00 0.00 78 1016.1
20260507025440 61 304 0.0 0.0 0.00 0.00 0.00 78 1016.1
20260507024933 61 304 0.0 0.0 0.00 0.00 0.00 78 1016.1
20260507024653 61 304 0.0 0.0 0.00 0.00 0.00 78 1016.0
20260507023920 61 304 0.0 0.0 0.00 0.00 0.00 78 1016.0
20260507023415 61 304 0.0 0.0 0.00 0.00 0.00 78 1016.0
20260507022909 61 304 0.0 0.9 0.00 0.00 0.00 77 1015.9
20260507022623 61 304 0.9 1.7 0.00 0.00 0.00 77 1015.8
20260507022120 61 304 0.0 1.7 0.00 0.00 0.00 77 1015.7
20260507021351 61 304 0.0 0.9 0.00 0.00 0.00 78 1015.8
20260507020845 61 304 0.0 0.9 0.00 0.00 0.00 77 1015.9
20260507020338 61 304 0.0 0.9 0.00 0.00 0.00 77 1016.0
20260507015833 61 304 0.0 1.7 0.00 0.00 0.00 78 1015.9
20260507015326 61 304 0.0 1.7 0.00 0.00 0.00 78 1015.7
20260507015048 61 304 0.0 0.9 0.00 0.00 0.00 78 1015.7
20260507014314 61 304 0.0 0.9 0.00 0.00 0.00 78 1015.8
20260507013809 61 304 0.0 1.7 0.00 0.00 0.00 78 1015.7
20260507013303 62 304 0.9 1.7 0.00 0.00 0.00 78 1015.7
20260507012757 62 304 0.9 1.7 0.00 0.00 0.00 79 1015.7
20260507012251 62 304 0.9 2.6 0.00 0.00 0.00 81 1015.7
20260507011745 62 304 0.9 2.6 0.00 0.00 0.00 81 1015.7
20260507011239 62 304 0.9 2.6 0.00 0.00 0.00 81 1015.6
20260507010732 62 304 1.7 2.6 0.00 0.00 0.00 81 1015.6
20260507010227 62 304 0.9 1.7 0.00 0.00 0.00 81 1015.6
20260507005720 62 304 1.7 3.5 0.00 0.00 0.00 80 1015.6
20260507005214 62 304 1.7 3.5 0.00 0.00 0.00 80 1015.6
20260507004710 62 305 0.9 2.6 0.00 0.00 0.00 79 1015.6
20260507004206 62 305 0.0 1.7 0.00 0.00 0.00 78 1015.4
20260507003657 62 305 0.0 0.0 0.00 0.00 0.00 77 1015.3
20260507003151 61 305 0.0 0.0 0.00 0.00 0.00 77 1015.3
20260507002645 61 305 0.0 0.0 0.00 0.00 0.00 77 1015.3
20260507002409 61 305 0.0 1.7 0.00 0.00 0.00 77 1015.3
20260507001633 61 305 0.0 1.7 0.00 0.00 0.00 77 1015.3
20260507001126 62 305 0.0 1.7 0.00 0.00 0.00 77 1015.3
20260507000621 62 305 0.9 1.7 0.00 0.00 0.00 77 1015.3
20260507000115 62 305 0.9 2.6 0.00 0.00 0.00 78 1015.4
20260506235608 63 305 0.9 2.6 0.00 0.00 0.00 80 1015.5
20260506235328 63 305 0.9 2.6 0.00 0.00 0.00 81 1015.6
20260506234557 63 305 1.7 3.5 0.00 0.00 0.00 82 1015.6
20260506234051 63 305 1.7 3.5 0.00 0.00 0.00 82 1015.7
20260506233545 63 304 1.7 3.5 0.00 0.00 0.00 82 1015.8
20260506233045 63 305 0.9 2.6 0.00 0.00 0.00 82 1015.8
20260506232543 63 305 0.9 2.6 0.00 0.00 0.00 82 1015.8
20260506232041 63 305 0.9 2.6 0.00 0.00 0.00 82 1015.7
20260506231538 63 305 0.9 2.6 0.00 0.00 0.00 82 1015.8
20260506231258 63 305 0.9 2.6 0.00 0.00 0.00 82 1015.7
20260506230758 63 305 0.9 2.6 0.00 0.00 0.00 82 1015.7
20260506230303 63 305 0.9 1.7 0.00 0.00 0.00 82 1015.7
20260506225535 63 305 1.7 2.6 0.00 0.00 0.00 82 1015.7
20260506225035 63 305 1.7 2.6 0.00 0.00 0.00 82 1015.8
20260506224534 63 305 0.9 2.6 0.00 0.00 0.00 82 1015.9
20260506224033 63 305 0.9 2.6 0.00 0.00 0.00 82 1015.8
20260506223530 63 305 0.9 2.6 0.00 0.00 0.00 82 1015.8
20260506223030 63 305 0.9 2.6 0.00 0.00 0.00 82 1015.7
20260506222531 63 305 0.9 2.6 0.00 0.00 0.00 82 1015.8
20260506222030 63 305 0.9 2.6 0.00 0.00 0.00 82 1015.8
20260506221529 63 305 0.9 3.5 0.00 0.00 0.00 83 1015.8
20260506221029 63 305 0.9 3.5 0.00 0.00 0.00 83 1015.8
20260506220528 63 305 0.9 2.6 0.00 0.00 0.00 83 1015.7
20260506220028 63 305 1.7 3.5 0.00 0.00 0.00 84 1015.7
20260506215528 63 305 1.7 3.5 0.00 0.00 0.00 84 1015.8
20260506215028 63 305 1.7 3.5 0.00 0.00 0.00 84 1015.8
20260506214529 63 305 1.7 2.6 0.00 0.00 0.00 84 1015.7
20260506214029 63 305 1.7 4.3 0.00 0.00 0.00 84 1015.8
20260506213529 63 305 1.7 4.3 0.00 0.00 0.00 84 1015.9
20260506213029 63 305 1.7 3.5 0.00 0.00 0.00 85 1015.8
20260506212751 63 305 2.6 4.3 0.00 0.00 0.00 85 1015.8
20260506212028 63 305 2.6 4.3 0.00 0.00 0.00 85 1015.9
20260506211529 63 305 1.7 4.3 0.00 0.00 0.00 85 1015.9
20260506211029 63 305 1.7 4.3 0.00 0.00 0.00 85 1015.9
20260506210528 63 299 2.6 4.3 0.00 0.00 0.00 85 1015.9
20260506210029 64 303 2.6 5.2 0.00 0.00 0.00 85 1015.9
20260506205527 64 297 2.6 5.2 0.00 0.00 0.00 84 1016.1
20260506205027 64 273 1.7 4.3 0.00 0.00 0.00 84 1016.1
20260506204527 64 273 1.7 3.5 0.00 0.00 0.00 83 1016.0
20260506204024 64 273 1.7 3.5 0.00 0.00 0.00 83 1016.0
20260506203525 64 273 1.7 3.5 0.00 0.00 0.00 83 1015.9
20260506203019 64 273 0.9 2.6 0.00 0.00 0.00 83 1015.8
20260506202513 64 273 1.7 4.3 0.00 0.00 0.00 83 1015.8
20260506202013 64 273 1.7 4.3 0.00 0.00 0.00 83 1015.8
20260506201732 64 308 1.7 3.5 0.00 0.00 0.00 83 1015.7
20260506201012 64 301 0.9 3.5 0.00 0.00 0.00 83 1015.7
20260506200512 64 254 0.9 1.7 0.00 0.00 0.00 83 1015.7
20260506200013 64 253 0.9 3.5 0.00 0.00 0.00 82 1015.7
20260506195513 64 264 0.9 3.5 0.00 0.00 0.00 82 1015.8
20260506195013 64 259 0.9 2.6 0.00 0.00 0.00 83 1015.6
20260506194512 64 258 0.9 1.7 0.00 0.00 0.00 83 1015.5
20260506194012 64 258 0.9 1.7 0.00 0.00 0.00 82 1015.4
20260506193512 64 258 0.9 1.7 0.00 0.00 0.00 82 1015.4
20260506193013 64 258 0.9 1.7 0.00 0.00 0.00 82 1015.4
20260506192513 64 226 0.9 1.7 0.00 0.00 0.00 82 1015.4
20260506192012 64 226 0.9 1.7 0.00 0.00 0.00 82 1015.3
20260506191512 64 226 0.9 1.7 0.00 0.00 0.00 82 1015.3
20260506191013 64 226 0.9 1.7 0.00 0.00 0.00 81 1015.3
20260506190738 64 220 0.0 1.7 0.00 0.00 0.00 82 1015.3
20260506190013 64 220 0.9 2.6 0.00 0.00 0.00 81 1015.3
20260506185513 65 220 0.9 2.6 0.00 0.00 0.00 81 1015.2
20260506185013 65 221 0.0 1.7 0.00 0.00 0.00 81 1015.2
20260506184512 65 221 0.0 1.7 0.00 0.00 0.00 82 1015.1
20260506184013 65 221 0.0 1.7 0.00 0.00 0.00 81 1015.1
20260506183512 65 97 0.9 2.6 0.00 0.00 0.00 82 1015.0
20260506183012 65 97 0.0 2.6 0.00 0.00 0.00 82 1015.0
20260506182513 65 197 0.0 2.6 0.00 0.00 0.00 82 1014.9
20260506182012 65 198 0.9 2.6 0.00 0.00 0.00 81 1014.9
20260506181512 65 160 0.9 2.6 0.00 0.00 0.00 81 1014.8
20260506181012 65 150 1.7 2.6 0.00 0.00 0.00 81 1014.8
20260506180512 65 153 0.9 2.6 0.00 0.00 0.00 81 1014.7
20260506180012 65 103 0.9 4.3 0.00 0.00 0.00 81 1014.6
20260506175734 65 103 0.9 4.3 0.00 0.00 0.00 81 1014.5
20260506175010 66 123 0.9 4.3 0.00 0.00 0.00 81 1014.5
20260506174728 66 216 1.7 5.2 0.00 0.00 0.00 80 1014.4
20260506173957 66 140 1.7 6.1 0.00 0.00 0.00 80 1014.3
20260506173452 66 160 0.9 6.1 0.00 0.00 0.00 79 1014.3
20260506172945 66 205 0.9 6.1 0.00 0.00 0.00 79 1014.3
20260506172440 67 205 2.6 6.1 0.00 0.00 0.00 78 1014.3
20260506171933 67 95 2.6 6.1 0.00 0.00 0.00 77 1014.2
20260506171427 67 141 1.7 6.1 0.00 0.00 0.00 75 1014.2
20260506170925 68 141 2.6 6.1 0.00 0.00 0.00 75 1014.2
20260506170425 68 217 3.5 6.1 0.00 0.00 0.00 73 1014.1
20260506165924 69 174 3.5 6.1 0.00 0.00 0.00 72 1014.1
20260506165422 69 148 3.5 8.7 0.00 0.00 0.00 71 1014.1
20260506164923 70 220 2.6 8.7 0.00 0.00 0.00 70 1014.1
20260506164423 70 162 2.6 7.0 0.00 0.00 0.00 70 1014.1
20260506163920 70 234 3.5 7.0 0.00 0.00 0.00 69 1014.1
20260506163420 70 207 3.5 8.7 0.00 0.00 0.00 69 1014.1
20260506162921 70 224 4.3 11.3 0.00 0.00 0.00 69 1014.1
20260506162419 70 198 4.3 11.3 0.00 0.00 0.00 69 1014.1
20260506161919 71 224 2.6 8.7 0.00 0.00 0.00 66 1014.1
20260506161418 72 230 3.5 7.8 0.00 0.00 0.00 65 1014.1
20260506160917 72 208 3.5 7.8 0.00 0.00 0.00 64 1014.1
20260506160417 73 199 3.5 7.8 0.00 0.00 0.00 62 1014.1
20260506155916 73 254 4.3 7.8 0.00 0.00 0.00 60 1014.1
20260506155416 73 191 3.5 7.0 0.00 0.00 0.00 59 1014.0
20260506154916 74 202 3.5 7.0 0.00 0.00 0.00 58 1014.1
20260506154410 74 209 3.5 7.0 0.00 0.00 0.00 57 1014.2
20260506153903 74 224 3.5 7.8 0.00 0.00 0.00 57 1014.1
20260506153357 74 204 3.5 7.8 0.00 0.00 0.00 57 1014.2
20260506152852 75 153 2.6 7.8 0.00 0.00 0.00 55 1014.2
20260506152345 75 206 2.6 5.2 0.00 0.00 0.00 55 1014.2
20260506151840 75 258 2.6 5.2 0.00 0.00 0.00 54 1014.3
20260506151333 75 223 3.5 7.0 0.00 0.00 0.00 54 1014.2
20260506150829 75 218 3.5 7.8 0.00 0.00 0.00 54 1014.2
20260506150322 75 183 2.6 7.0 0.00 0.00 0.00 53 1014.3
20260506145816 76 202 2.6 7.0 0.00 0.00 0.00 52 1014.2
20260506145310 76 185 4.3 9.6 0.00 0.00 0.00 52 1014.3
20260506144804 76 213 3.5 9.6 0.00 0.00 0.00 51 1014.3
20260506144258 77 224 2.6 7.0 0.00 0.00 0.00 50 1014.3
20260506143752 76 208 3.5 7.8 0.00 0.00 0.00 50 1014.3
20260506143246 76 205 3.5 8.7 0.00 0.00 0.00 50 1014.3
20260506142740 76 233 3.5 8.7 0.00 0.00 0.00 50 1014.3
20260506142234 76 152 4.3 10.4 0.00 0.00 0.00 50 1014.4
20260506141727 77 274 4.3 10.4 0.00 0.00 0.00 48 1014.4
20260506141222 77 209 3.5 9.6 0.00 0.00 0.00 47 1014.4
20260506140716 78 203 2.6 9.6 0.00 0.00 0.00 45 1014.4
20260506140211 78 90 3.5 7.0 0.00 0.00 0.00 45 1014.4
20260506135704 78 233 3.5 7.8 0.00 0.00 0.00 47 1014.4
20260506135158 78 188 3.5 8.7 0.00 0.00 0.00 46 1014.5
20260506134652 77 219 3.5 8.7 0.00 0.00 0.00 46 1014.4
20260506134145 77 212 3.5 8.7 0.00 0.00 0.00 47 1014.4
20260506133640 76 209 4.3 8.7 0.00 0.00 0.00 48 1014.4
20260506133133 77 249 3.5 10.4 0.00 0.00 0.00 48 1014.6
20260506132629 77 211 4.3 10.4 0.00 0.00 0.00 47 1014.6
20260506132345 76 236 4.3 9.6 0.00 0.00 0.00 46 1014.6
20260506131616 76 148 3.5 9.6 0.00 0.00 0.00 48 1014.7
20260506131110 77 202 4.3 9.6 0.00 0.00 0.00 46 1014.8
20260506130827 77 236 3.5 8.7 0.00 0.00 0.00 46 1014.7
20260506130057 78 218 3.5 8.7 0.00 0.00 0.00 45 1014.8
20260506125551 78 278 3.5 8.7 0.00 0.00 0.00 45 1014.8
20260506125044 77 188 2.6 7.8 0.00 0.00 0.00 45 1014.8
20260506124538 77 154 3.5 7.8 0.00 0.00 0.00 45 1014.9
20260506124032 77 233 3.5 7.0 0.00 0.00 0.00 46 1015.0
20260506123526 77 226 3.5 7.8 0.00 0.00 0.00 47 1015.0
20260506123240 76 133 4.3 7.8 0.00 0.00 0.00 47 1015.0
20260506122514 76 274 4.3 8.7 0.00 0.00 0.00 47 1015.0
20260506122008 76 248 4.3 10.4 0.00 0.00 0.00 47 1015.1
20260506121502 76 216 3.5 10.4 0.00 0.00 0.00 46 1015.1
20260506121445 77 300 2.6 7.8 0.00 0.00 0.00 46 1015.2
20260506120456 77 250 1.7 7.8 0.00 0.00 0.00 45 1015.2
20260506120212 77 221 1.7 5.2 0.00 0.00 0.00 44 1015.2
20260506115720 76 246 2.6 6.1 0.00 0.00 0.00 46 1015.3
20260506114952 75 278 3.5 7.8 0.00 0.00 0.00 48 1015.3
20260506114452 75 218 3.5 7.8 0.00 0.00 0.00 49 1015.4
20260506113951 75 276 2.6 7.0 0.00 0.00 0.00 48 1015.5
20260506113450 74 223 3.5 7.0 0.00 0.00 0.00 50 1015.5
20260506112950 74 212 2.6 7.0 0.00 0.00 0.00 49 1015.5
20260506112450 74 264 2.6 7.0 0.00 0.00 0.00 52 1015.6
20260506111950 73 257 2.6 7.0 0.00 0.00 0.00 53 1015.6
20260506111450 73 241 3.5 7.0 0.00 0.00 0.00 53 1015.7
20260506111217 72 242 3.5 7.0 0.00 0.00 0.00 52 1015.7
20260506110450 72 256 4.3 7.0 0.00 0.00 0.00 50 1015.8
20260506110214 72 239 3.5 6.1 0.00 0.00 0.00 50 1015.7
20260506105449 72 231 3.5 7.0 0.00 0.00 0.00 50 1015.7
20260506104950 72 263 2.6 7.0 0.00 0.00 0.00 49 1015.7
20260506104450 73 230 3.5 7.0 0.00 0.00 0.00 49 1015.8
20260506103948 72 271 3.5 7.0 0.00 0.00 0.00 48 1015.8
20260506103448 72 203 3.5 8.7 0.00 0.00 0.00 47 1015.8
20260506102948 72 94 4.3 8.7 0.00 0.00 0.00 47 1015.9
20260506102448 72 235 4.3 8.7 0.00 0.00 0.00 42 1015.9
20260506101948 72 201 3.5 7.8 0.00 0.00 0.00 43 1016.0
20260506101705 73 257 2.6 6.1 0.00 0.00 0.00 40 1016.0
20260506100948 73 265 2.6 7.0 0.00 0.00 0.00 39 1016.0
20260506100448 73 288 2.6 7.0 0.00 0.00 0.00 40 1016.1
20260506100215 73 266 1.7 5.2 0.00 0.00 0.00 40 1016.2
20260506095448 73 236 2.6 6.1 0.00 0.00 0.00 40 1016.2
20260506094948 72 219 2.6 6.1 0.00 0.00 0.00 42 1016.3
20260506094706 73 229 1.7 5.2 0.00 0.00 0.00 45 1016.3
20260506094214 73 216 1.7 5.2 0.00 0.00 0.00 45 1016.3
20260506093444 72 209 2.6 6.1 0.00 0.00 0.00 45 1016.3
20260506092943 71 212 2.6 6.1 0.00 0.00 0.00 43 1016.2
20260506092443 71 264 2.6 4.3 0.00 0.00 0.00 47 1016.2
20260506091943 71 258 2.6 4.3 0.00 0.00 0.00 48 1016.2
20260506091701 70 253 2.6 4.3 0.00 0.00 0.00 52 1016.2
20260506090943 70 269 2.6 5.2 0.00 0.00 0.00 51 1016.3
20260506090443 70 259 3.5 5.2 0.00 0.00 0.00 51 1016.2
20260506085944 70 320 3.5 5.2 0.00 0.00 0.00 51 1016.2
20260506085444 70 302 2.6 4.3 0.00 0.00 0.00 51 1016.2
20260506084943 70 272 2.6 5.2 0.00 0.00 0.00 53 1016.2
20260506084443 70 271 2.6 5.2 0.00 0.00 0.00 53 1016.3
20260506084203 70 245 1.7 4.3 0.00 0.00 0.00 55 1016.3
20260506083443 70 255 1.7 4.3 0.00 0.00 0.00 56 1016.2
20260506082941 69 215 1.7 3.5 0.00 0.00 0.00 56 1016.3
20260506082704 69 261 1.7 3.5 0.00 0.00 0.00 57 1016.2
20260506081939 69 210 1.7 3.5 0.00 0.00 0.00 58 1016.2
20260506081437 69 201 1.7 3.5 0.00 0.00 0.00 60 1016.2
20260506080937 68 212 1.7 3.5 0.00 0.00 0.00 62 1016.2
20260506080653 68 272 1.7 3.5 0.00 0.00 0.00 61 1016.1
20260506073429 66 278 1.7 4.3 0.00 0.00 0.00 64 1016.1
20260506072927 66 281 1.7 4.3 0.00 0.00 0.00 66 1016.1
20260506072425 66 270 1.7 3.5 0.00 0.00 0.00 66 1016.0
20260506071925 66 259 0.9 3.5 0.00 0.00 0.00 67 1016.0
20260506071427 65 304 0.9 1.7 0.00 0.00 0.00 66 1016.0
20260506070924 65 304 0.9 2.6 0.00 0.00 0.00 67 1016.1
20260506070421 65 304 1.7 2.6 0.00 0.00 0.00 66 1016.1